IGO311F VEMN-VECC

Flight info

Callsign IGO311F
Flight time N/A
Altitude 36000
Route DRG W51 GGT R472 AGODA AGODA2G
Aircraft A320/M-SDE3FGHIRWY/LB1

Departure

Time 2026-04-30 14:51
Airport Dibrugarh Airport (VEMN)

Arrival

Time N/A
Airport Netaji Subhash Chandra Bose International Airport (VECC)
Time Latitude Longitude Altitude Speed Heading
2026-04-30 14:29 27.48388 95.02035 362 ft 0 kts 274°
2026-04-30 14:47 27.48388 95.02032 362 ft 3 kts 274°
2026-04-30 14:47 27.48391 95.02000 362 ft 4 kts 272°
2026-04-30 14:48 27.48380 95.01965 366 ft 6 kts 232°
2026-04-30 14:48 27.48347 95.01923 361 ft 9 kts 226°
2026-04-30 14:48 27.48347 95.01856 363 ft 11 kts 312°
2026-04-30 14:48 27.48383 95.01775 364 ft 14 kts 251°
2026-04-30 14:49 27.48314 95.01689 366 ft 16 kts 226°
2026-04-30 14:49 27.48224 95.01592 362 ft 20 kts 221°
2026-04-30 14:49 27.48119 95.01469 363 ft 23 kts 224°
2026-04-30 14:49 27.47999 95.01335 361 ft 26 kts 226°
2026-04-30 14:50 27.47802 95.01082 360 ft 6 kts 159°
2026-04-30 14:50 27.47812 95.01119 364 ft 8 kts 46°
2026-04-30 14:51 27.48539 95.01930 373 ft 144 kts 44°
2026-04-30 14:51 27.49272 95.02818 867 ft 162 kts 49°
2026-04-30 14:51 27.50975 95.04492 2155 ft 177 kts 19°
2026-04-30 14:52 27.52267 95.04465 2346 ft 204 kts 339°
2026-04-30 14:52 27.53558 95.01430 3023 ft 260 kts 257°
2026-04-30 14:52 27.52765 94.99545 3695 ft 272 kts 232°
2026-04-30 14:53 27.50580 94.97260 5244 ft 270 kts 220°
2026-04-30 14:53 27.49134 94.95908 6199 ft 271 kts 219°
2026-04-30 14:54 27.46190 94.93198 7899 ft 275 kts 219°
2026-04-30 14:54 27.43713 94.90928 9364 ft 277 kts 220°
2026-04-30 14:55 27.40647 94.88116 10407 ft 303 kts 219°
2026-04-30 14:55 27.38954 94.86560 10604 ft 324 kts 219°
2026-04-30 14:55 27.34793 94.82737 12108 ft 334 kts 218°
2026-04-30 14:56 27.31784 94.79973 13273 ft 338 kts 218°
2026-04-30 14:56 27.28102 94.76602 14502 ft 345 kts 218°
2026-04-30 14:57 27.26234 94.74893 15067 ft 348 kts 218°
2026-04-30 14:57 27.22439 94.71421 16150 ft 355 kts 218°
2026-04-30 14:58 27.18565 94.67879 17208 ft 362 kts 218°
2026-04-30 14:58 27.16601 94.66085 17731 ft 366 kts 218°
2026-04-30 14:58 27.12819 94.62190 18679 ft 373 kts 224°
2026-04-30 14:59 27.09148 94.58019 19620 ft 378 kts 224°
2026-04-30 15:00 27.03542 94.51658 20952 ft 388 kts 225°
2026-04-30 15:00 26.99697 94.47298 21880 ft 393 kts 225°
2026-04-30 15:01 26.95842 94.42943 22786 ft 398 kts 225°
2026-04-30 15:01 26.93886 94.40733 23242 ft 401 kts 225°
2026-04-30 15:01 26.89930 94.36263 24043 ft 406 kts 225°
2026-04-30 15:02 26.87938 94.34013 24433 ft 408 kts 225°
2026-04-30 15:02 26.85937 94.31753 24826 ft 410 kts 225°
2026-04-30 15:03 26.79875 94.24916 25967 ft 416 kts 225°
2026-04-30 15:03 26.75786 94.20302 26736 ft 419 kts 225°
2026-04-30 15:04 26.72279 94.15065 27412 ft 426 kts 243°
2026-04-30 15:04 26.69554 94.05501 28466 ft 434 kts 252°
2026-04-30 15:05 26.67064 93.95827 29930 ft 431 kts 252°
2026-04-30 15:06 26.65398 93.89383 30889 ft 426 kts 251°
2026-04-30 15:06 26.63780 93.83108 31884 ft 420 kts 251°
2026-04-30 15:07 26.62162 93.76875 32977 ft 414 kts 251°
2026-04-30 15:07 26.60569 93.70751 33999 ft 408 kts 251°
2026-04-30 15:08 26.59101 93.64668 34897 ft 403 kts 253°
2026-04-30 15:08 26.57119 93.55617 35839 ft 399 kts 253°
2026-04-30 15:09 26.55748 93.49537 35874 ft 406 kts 252°
2026-04-30 15:10 26.52934 93.37314 35874 ft 407 kts 252°
2026-04-30 15:11 26.48658 93.19002 35875 ft 406 kts 252°
2026-04-30 15:13 26.45084 93.03741 35899 ft 407 kts 252°
2026-04-30 15:14 26.40047 92.82360 35885 ft 407 kts 252°
2026-04-30 15:17 26.33532 92.54920 35880 ft 408 kts 252°
2026-04-30 15:19 26.27680 92.30441 35876 ft 409 kts 253°